Regional Weather Roundup
Issued by NWS

Home | Current Version | Previous Version | Graphics & Text | Print | Product List | Glossary Off
Versions: 1 2 3 4 5 6 7 8 9 10 11 12 13 14 15 16 17 18 19 20 21 22 23 24 25 26 27 28 29 30 31 32 33 34 35 36 37 38 39 40 41 42 43 44 45 46 47 48 49 50

000
ASUS43 KMKX 271300
RWRWI

WISCONSIN REGIONAL WEATHER ROUNDUP
NATIONAL WEATHER SERVICE MILWAUKEE/SULLIVAN WI
800 AM CDT TUE JUN 27 2017

NOTE: "FAIR" INDICATES FEW OR NO CLOUDS BELOW 12,000 FEET WITH NO
SIGNIFICANT WEATHER AND/OR OBSTRUCTIONS TO VISIBILITY.

WIZ001-002-006>008-014>016-023>028-271400-
NORTHWEST WISCONSIN

CITY           SKY/WX    TMP DP  RH WIND       PRES   REMARKS
SUPERIOR ARPT  NOT AVBL
ASHLAND        SUNNY     58  49  72 W9        30.05R
HAYWARD        SUNNY     54  48  80 S3        30.08R
SIREN          SUNNY     57  47  69 CALM      30.08R
CUMBERLAND     SUNNY     54  48  82 SW3       30.09R
RICE LAKE      SUNNY     57  50  78 SW3       30.11R
CHETEK         SUNNY     53  51  91 CALM      30.09S
LADYSMITH      SUNNY     57  49  74 CALM      30.10R
EAU CLAIRE     SUNNY     58  49  72 SW5       30.09S
MENOMONIE      SUNNY     59  50  71 S3        30.10R
NEW RICHMOND   SUNNY     57  47  70 SW3       30.10R
OSCEOLA        SUNNY     55  52  89 CALM      30.12R
$$

WIZ003>005-009-010-017-018-271400-
NORTH CENTRAL WISCONSIN

CITY           SKY/WX    TMP DP  RH WIND       PRES   REMARKS
MANITOWISH WTR SUNNY     54  52  93 W3        30.05S
ARBOR VITAE    SUNNY     57  52  82 W5        30.05S
WOODRUFF       SUNNY     57  52  82 W5        30.05S
RHINELANDER    SUNNY     55  50  83 W8        30.07R
EAGLE RIVER    SUNNY     55  51  84 W5        30.05R
LAND O LAKES   SUNNY     56  49  75 W3        30.07R
PHILLIPS       SUNNY     55  51  84 W5        30.07R
TOMAHAWK       NOT AVBL
MEDFORD        SUNNY     54  47  78 W8        30.09R
MERRILL        SUNNY     55  50  81 W6        30.08R
$$

WIZ029-030-035-036-043>047-271400-
CENTRAL WISCONSIN

CITY           SKY/WX    TMP DP  RH WIND       PRES   REMARKS
WAUSAU         SUNNY     58  49  72 NW8       30.07R
MOSINEE        MOSUNNY   57  50  77 W7        30.10R
MARSHFIELD     SUNNY     58  48  69 W9        30.09R
STEVENS POINT  SUNNY     55  48  75 W6        30.10R
WAUPACA        MOSUNNY   60  50  68 W8        30.09S
WAUTOMA        SUNNY     61  50  67 W8        30.11R
WISC RAPIDS    SUNNY     59  49  69 W8        30.11R
CAMP DOUGLAS   NOT AVBL
$$

WIZ011>013-019>022-031-037>040-048>050-271400-
NORTHEAST WISCONSIN

CITY           SKY/WX    TMP DP  RH WIND       PRES   REMARKS
ANTIGO         MOSUNNY   53  49  84 W6        30.08R
SHAWANO        PTSUNNY   58  50  74 W3        30.07R
OCONTO         SUNNY     55  50  84 W7        30.05R
STURGEON BAY     N/A     58  50  75 MISG        N/A
GREEN BAY      SUNNY     59  53  80 W6        30.07R
MANITOWOC      NOT AVBL
APPLETON       MOSUNNY   55  52  88 W9        30.07R
CLINTONVILLE   PTSUNNY   54  46  76 CALM      30.08R
OSHKOSH        SUNNY     58  49  72 W7        30.08R
$$

WIZ032>034-041-042-053>061-271400-
SOUTHWEST WISCONSIN

CITY           SKY/WX    TMP DP  RH WIND       PRES   REMARKS
LA CROSSE      SUNNY     62  50  64 S6        30.12S
SPARTA         SUNNY     52  49  90 CALM      30.12S
VIROQUA        SUNNY     56  49  78 W7        30.14R
BOSCOBEL       SUNNY     54  51  90 CALM      30.14S
PRAIRIE DU CHI SUNNY     55  51  87 CALM      30.14S
PLATTEVILLE    SUNNY     56  51  82 W3        30.15S
$$

WIZ056-057-062-063-064-067-068-271400-
SOUTH CENTRAL WISCONSIN

CITY           SKY/WX    TMP DP  RH WIND       PRES   REMARKS
REEDSBURG      SUNNY     55  51  87 CALM      30.12R
BARABOO/DELLS  SUNNY     57  49  75 CALM      30.12R
LONE ROCK      NOT AVBL
MINERAL POINT  SUNNY     57  52  82 W5        30.14S
MADISON        SUNNY     59  49  69 VRB6      30.12R
MIDDLETON      SUNNY     57  49  75 W8        30.13R
WATERTOWN      NOT AVBL
MONROE         SUNNY     59  45  58 W8        30.14R
JANESVILLE     SUNNY     59  48  67 CALM      30.13R
$$

WIZ051-052-058>065-066-070>072-271400-
SOUTHEAST WISCONSIN

CITY           SKY/WX    TMP DP  RH WIND       PRES   REMARKS
MILWAUKEE      MOSUNNY   62  48  60 W9        30.11R
WAUKESHA       SUNNY     55  48  76 W9        30.12R
MILWAUKEE/TIMM SUNNY     59  46  63 W7        30.11R
RACINE         SUNNY     60  49  66 W7        30.13R
KENOSHA        SUNNY     60  50  69 W7        30.12R
FOND DU LAC    SUNNY     60  48  64 W7        30.09S
SHEBOYGAN      SUNNY     59  53  80 W7        30.08R
WEST BEND      SUNNY     57  50  77 W9        30.09S
JUNEAU         SUNNY     56  49  76 CALM      30.12R
$$

LSZ147-162-271400-
LAKE SUPERIOR

STATION/POSITION TIME  TEMP    WIND        PRES    WAVE
                       AIR SEA DIR/SP/G            HT/PER
                 (UTC) (F)     (DEG/KT/KT) (MB)    (FT/S)
W MID LAKE BUOY  1150   43 39  230/  8/  8 1016.4R   1
DEVILS ISLAND    1200   54     220/  9/ 11 1016.8R
SAXON HARBOR     1240   58     160/  4/  6 1016.9R
$$

LMZ867-665-643>646-271400-
LAKE MICHIGAN

STATION/POSITION TIME  TEMP    WIND        PRES    WAVE
                       AIR SEA DIR/SP/G            HT/PER
                 (UTC) (F)     (DEG/KT/KT) (MB)    (FT/S)
CHAMBERS ISLAND  1240   59     280/  4/  5 1016.9R
S GREEN BAY BUOY 1230   56     280/  6/ 10 1017.2R
N MID LAKE BUOY  1150   56 54  290/  6/  8 1016.7R   1/ 3
NORTHPORT PIER   1240   59     300/  8/ 12 1016.6R
KEWAUNEE LAKESHO 1230   56     290/  5/  9 1017.2R
SHEBOYGAN LAKESH 1200   56     270/ 12/ 14 1018.0R
PORT WASHINGTON  1230   60     290/  8/ 12 1019.3S
ATWATER BUOY     1109   56 56  260/ 10/ 12 1018.6R
MILWAUKEE LAKESH 1230   59     290/  6/  8   N/A
S MID LAKE BUOY  1150   60 61  280/ 12/ 14 1018.8R   1/ 4
KENOSHA   LAKESH 1200   57     280/  8/ 11 1019.3
$$

TC  - TEMPERATURE IN CELSIUS
VSB - VISIBILITY IN STATUTE MILES
WCI - WIND CHILL INDEX
HX  - HEAT INDEX




USA.gov is the U.S. government's official web portal to all federal, state and local government web resources and services.